Palacios, TX

4:55 AM CDT on May 26, 2017 (GMT -0500)
Palacios Municipal

Weather History for KPSX - May, 2014

Change the Weather History Date:

Monday, May 19, 2014

  Actual Average Record
Temperature  
Mean Temperature 77 °F -  
Max Temperature 82 °F 83 °F 89 °F (2008)
Min Temperature 72 °F 69 °F 55 °F (2002)
Cooling Degree Days 12    
Growing Degree Days 27 (Base 50)    
Moisture  
Dew Point 68 °F    
Average Humidity 77    
Maximum Humidity 91    
Minimum Humidity 58    
Precipitation  
Precipitation 0.00 in - - ()
Sea Level Pressure  
Sea Level Pressure 30.06 in    
Wind  
Wind Speed 14 mph (SSE)    
Max Wind Speed 18 mph    
Max Gust Speed 24 mph    
Visibility 10 miles    
Events      
Averages and records for this station are not official NWS values.
T = Trace of Precipitation, MM = Missing Value Source: NWS Daily Summary

Daily Weather History Graph

Daily Weather History Graph

Search for Another Location

Airport or City:

Trip Planner

Search our weather history database for the weather conditions in past years. The results will help you decide how hot, cold, wet, or windy it might be!

Date:

Astronomy

May. 19, 2014 Rise Set
Actual Time 6:31 AM CDT 8:11 PM CDT
Civil Twilight 6:05 AM CDT 8:37 PM CDT
Nautical Twilight 5:34 AM CDT 9:08 PM CDT
Astronomical Twilight 5:01 AM CDT 9:41 PM CDT
Moon 12:06 AM CDT (5/19) 11:23 AM CDT (5/19)
Length of Visible Light 14h 31m
Length of Day
13h 39m
Waning Gibbous, 71% of the Moon is Illuminated
May 19
Waning Gibbous
May 21
Last Quarter
May 28
New
Jun 5
First Quarter
Jun 12
Full

Hourly Weather History & Observations

Time (CDT) Temp. Heat Index Dew Point Humidity Pressure Visibility Wind Dir Wind Speed Gust Speed Precip Events Conditions
12:33 AM 73.0 °F - 68.0 °F 84% 30.08 in 10.0 mi SE 11.5 mph - N/A   Mostly Cloudy
12:42 AM 72.0 °F - 68.0 °F 87% 30.07 in 10.0 mi SE 13.8 mph - N/A   Scattered Clouds
12:53 AM 73.0 °F - 68.0 °F 84% 30.07 in 10.0 mi SE 15.0 mph - N/A   Scattered Clouds
1:53 AM 73.0 °F - 68.0 °F 84% 30.06 in 10.0 mi SSE 13.8 mph - N/A   Scattered Clouds
2:37 AM 73.0 °F - 68.0 °F 84% 30.05 in 10.0 mi SSE 13.8 mph - N/A   Mostly Cloudy
2:53 AM 73.0 °F - 68.0 °F 84% 30.05 in 10.0 mi SSE 15.0 mph - N/A   Scattered Clouds
3:53 AM 72.0 °F - 68.0 °F 87% 30.04 in 10.0 mi SSE 16.1 mph - N/A   Scattered Clouds
4:25 AM 72.0 °F - 68.0 °F 87% 30.03 in 10.0 mi SSE 13.8 mph - N/A   Mostly Cloudy
4:53 AM 73.0 °F - 68.0 °F 84% 30.03 in 10.0 mi SSE 13.8 mph - N/A   Mostly Cloudy
5:43 AM 72.0 °F - 68.0 °F 87% 30.03 in 10.0 mi SSE 12.7 mph - N/A   Scattered Clouds
5:53 AM 72.0 °F - 68.0 °F 87% 30.03 in 10.0 mi SSE 17.3 mph 24.2 mph N/A   Partly Cloudy
6:53 AM 72.0 °F - 68.0 °F 87% 30.04 in 9.0 mi SSE 12.7 mph - N/A   Partly Cloudy
8:53 AM 75.0 °F - 66.9 °F 76% 30.08 in 10.0 mi SSE 13.8 mph 23.0 mph N/A   Partly Cloudy
9:53 AM 75.9 °F - 66.9 °F 74% 30.09 in 10.0 mi SSE 12.7 mph - N/A   Scattered Clouds
10:53 AM 78.1 °F - 66.0 °F 66% 30.10 in 10.0 mi SSE 16.1 mph - N/A   Partly Cloudy
11:53 AM 79.0 °F - 66.0 °F 64% 30.10 in 10.0 mi SSE 13.8 mph - N/A   Scattered Clouds
12:53 PM 80.1 °F 82.1 °F 66.0 °F 62% 30.09 in 10.0 mi South 11.5 mph - N/A   Partly Cloudy
1:53 PM 81.0 °F 83.0 °F 66.0 °F 60% 30.08 in 10.0 mi SSE 13.8 mph 21.9 mph N/A   Partly Cloudy
2:53 PM 82.0 °F 84.1 °F 66.0 °F 58% 30.07 in 10.0 mi SSE 16.1 mph - N/A   Partly Cloudy
3:48 PM 80.6 °F 82.7 °F 66.2 °F 61% 30.07 in 10.0 mi SSE 17.3 mph 21.9 mph N/A   Partly Cloudy
3:53 PM 81.0 °F 83.3 °F 66.9 °F 62% 30.06 in 10.0 mi South 13.8 mph - N/A   Clear
4:53 PM 80.1 °F 82.7 °F 68.0 °F 67% 30.06 in 10.0 mi SSE 15.0 mph - N/A   Mostly Cloudy
5:04 PM 81.0 °F 83.8 °F 68.0 °F 65% 30.05 in 10.0 mi SE 16.1 mph - N/A   Mostly Cloudy
5:30 PM 80.1 °F 82.7 °F 68.0 °F 67% 30.05 in 10.0 mi SE 15.0 mph - N/A   Mostly Cloudy
5:53 PM 80.1 °F 82.7 °F 68.0 °F 67% 30.04 in 10.0 mi ESE 15.0 mph - N/A   Scattered Clouds
6:32 PM 78.1 °F - 69.1 °F 74% 30.04 in 10.0 mi SE 18.4 mph - N/A   Mostly Cloudy
6:53 PM 77.0 °F - 69.1 °F 76% 30.03 in 10.0 mi SE 17.3 mph - N/A   Mostly Cloudy
8:53 PM 75.0 °F - 70.0 °F 84% 30.04 in 10.0 mi SE 17.3 mph - N/A   Mostly Cloudy
9:02 PM 75.0 °F - 70.0 °F 84% 30.04 in 10.0 mi SE 15.0 mph - N/A   Mostly Cloudy
9:46 PM 73.9 °F - 71.1 °F 91% 30.04 in 10.0 mi SE 16.1 mph - N/A   Scattered Clouds
9:53 PM 73.9 °F - 71.1 °F 91% 30.05 in 10.0 mi SE 13.8 mph - N/A   Partly Cloudy
10:53 PM 73.9 °F - 71.1 °F 91% 30.06 in 10.0 mi SE 17.3 mph - N/A   Partly Cloudy
11:53 PM 73.9 °F - 70.0 °F 87% 30.06 in 10.0 mi SE 15.0 mph - N/A   Scattered Clouds